[Iaude] MPEC P50: 2024 PJ [a=1.46,e=0.25,i=27.4,H=23.6]

mpec at cfa.harvard.edu mpec at cfa.harvard.edu
Sat Aug 3 14:37:58 EDT 2024


M.P.E.C. 2024-P50                                Issued 2024 August 3, 18:36 UT

     The Minor Planet Electronic Circulars contain information on unusual
         minor planets, routine data on comets and natural satellites,
         and occasional editorial announcements.  They are published
    on behalf of Division F of the International Astronomical Union by the
          Minor Planet Center, Smithsonian Astrophysical Observatory,
                          Cambridge, MA 02138, U.S.A.
			  
             Prepared using the Tamkin Foundation Computer Network

                              MPC at CFA.HARVARD.EDU
            URL https://www.minorplanetcenter.net/    ISSN 1523-6714

                                    2024 PJ                                     


Observations:
     K24P00J* C2024 08 01.45393622 03 03.681-45 35 27.13         20.13wXEP050F51
     K24P00J  C2024 08 01.46169722 02 58.613-45 34 02.55         20.23wXEP050F51
     K24P00J  C2024 08 01.46947222 02 53.523-45 32 37.99         20.21wXEP050F51
     K24P00J KC2024 08 01.66900522 00 48.754-44 54 30.53         20.1 GVEP050474
     K24P00J KC2024 08 01.67101322 00 47.522-44 54 08.39         20.0 GVEP050474
     K24P00J KC2024 08 01.67302222 00 46.229-44 53 45.10         20.3 GVEP050474
     K24P00J KC2024 08 01.67703922 00 43.673-44 52 59.27         20.2 GVEP050474
     K24P00J KC2024 08 02.47956821 52 45.245-42 15 35.93         19.8 GVEP050474
     K24P00J KC2024 08 02.48096221 52 44.328-42 15 19.01         19.8 GVEP050474
     K24P00J KC2024 08 02.48235521 52 43.445-42 15 01.76         19.6 GVEP050474
     K24P00J KC2024 08 02.48374921 52 42.547-42 14 45.28         20.1 GVEP050474
     K24P00J KC2024 08 02.48514121 52 41.681-42 14 28.00         19.5 GVEP050474
     K24P00J KC2024 08 02.57495 21 51 44.405-41 56 01.21         19.4 GVEP050R65
     K24P00J KC2024 08 02.57847 21 51 42.166-41 55 17.72         19.6 GVEP050R65
     K24P00J KC2024 08 02.58064 21 51 40.814-41 54 50.33         19.7 GVEP050R65
     K24P00J KC2024 08 02.58281 21 51 39.425-41 54 23.76         19.7 GVEP050R65
     K24P00J KC2024 08 02.58498 21 51 38.009-41 53 55.86         19.6 GVEP050R65
     K24P00J 1C2024 08 03.49272721 42 34.610-38 36 52.73         19.07GVEP050T12
     K24P00J 1C2024 08 03.49399721 42 33.804-38 36 35.24         19.92GVEP050T12
     K24P00J 1C2024 08 03.49575721 42 32.694-38 36 10.78         20.00GVEP050T12

Observer details:
474 Mount John Observatory, Lake Tekapo.  Observers A. C. Gilmore, P. M.
    Kilmartin.  Measurer P. M. Kilmartin.  0.6-m f/6.3 Reflector + CCD.
F51 Pan-STARRS 1, Haleakala.  Observers J. Herman, T. Lowe, P. Minguez, A.
    Schultz, I. Smith.  Measurers K. Chambers, T. de Boer, J. Fairlamb, H.
    Gao, M. Huber, C.-C. Lin, E. Magnier, Y. Ramanjooloo, R. Wainscoat, R.
    Weryk.  1.8-m Ritchey-Chretien + CCD.
R65 R. F. Joyce Observatory, Christchurch.  Observer R. B. Glassey.  0.4-m
    f/8.0 Schmidt Cassegrain + CCD.
T12 University of Hawaii 88-inch telescope, Maunakea.  Observer Y.
    Ramanjooloo.  Measurers R. Weryk, Y. Ramanjooloo, J. Fairlamb, R.
    Wainscoat.  2.24-m f/10.1 reflector + CCD.

Orbital elements:
2024 PJ                                                  Earth MOID = 0.0860 AU
Epoch 2024 Oct. 17.0 TT = JDT 2460600.5                 MPC                     
M  29.57481              (2000.0)            P               Q                  
n   0.56017346     Peri.   16.43871     +0.85986726     +0.39537427             
a   1.4574300      Node   315.46578     -0.50471081     +0.56321047             
e   0.2514797      Incl.   27.41955     -0.07678081     +0.72558470             
P   1.76           H   23.61          G   0.15           U   8                  
Residuals in seconds of arc
240801 F51  0.2+  0.2-    240802 474  0.6+  0.1-    240802 R65  0.1+  0.3+
240801 F51  0.0   0.2+    240802 474  0.2+  0.1-    240802 R65  0.0   0.3-
240801 F51  0.2-  0.2+    240802 474  0.2+  0.1+    240802 R65  0.4-  0.5+
240801 474  0.3-  0.1+    240802 474  0.0   0.4-    240803 T12  0.1-  0.0
240801 474  0.2+  0.6-    240802 474  0.1+  0.1-    240803 T12  0.0   0.0
240801 474  0.0   0.1-    240802 R65  0.3-  0.3+    240803 T12  0.2+  0.1+
240801 474  0.0   0.1+    240802 R65  0.2-  0.1-

Ephemeris:
2024 PJ                  a,e,i = 1.46, 0.25, 27                  q = 1.0909
Date    TT    R. A. (2000) Decl.     Delta      r    Elong.  Phase     V
2024 07 04    00 55 56.4 -68 52 19   0.3181  1.1691   111.0    54.3    23.4
...
2024 07 19    00 00 39.5 -64 46 27   0.2011  1.1322   120.7    50.5    22.3
...
2024 07 27    22 56 57.2 -57 27 26   0.1420  1.1168   132.8    41.9    21.2
...
2024 08 02    21 57 31.9 -43 51 42   0.1052  1.1074   150.2    27.1    20.2
2024 08 03    21 47 30.1 -40 25 54   0.1004  1.1061   154.3    23.5    19.9
2024 08 04    21 37 35.9 -36 36 26   0.09616 1.1047   158.7    19.5    19.7
...
2024 08 10    20 43 32.9 -07 14 42   0.08617 1.0981   167.8    11.2    19.2
...
2024 08 18    19 51 38.2 +25 45 07   0.1157  1.0925   131.6    43.8    20.8
...
2024 09 02    19 04 41.4 +46 44 56   0.2198  1.0928   106.7    62.2    22.7

A. U. Tomatic                (C) Copyright 2024 MPC           M.P.E.C. 2024-P50





More information about the Iaude mailing list